DateTimeUTC,F1_A11,F1_S11,BsB_S11,BsG_S11,BsR_S11,BbsB_S11,BbsG_S11,BbsR_S11,BaB_A11,BaG_A11,BaR_A11,Tu_S11,T_S11,Uu_S11,U_S11,P_S11,T1_A11
2021-10-17T19:00:00Z,00000200,21000000,,,,,,,-000.01,-000.37,-000.04,17.0,24.4,,00.0,0669.5,30.9
2021-10-17T19:01:00Z,00000200,21000000,,,,,,,0000.03,0000.50,0000.20,17.0,24.4,,00.0,0669.5,30.9
2021-10-17T19:02:00Z,00000200,21000000,,,,,,,0000.49,0000.31,0000.04,17.0,24.4,,00.0,0669.5,30.9
2021-10-17T19:03:00Z,00000200,61000000,,,,,,,0000.12,0000.49,0000.46,17.0,24.4,,00.0,0669.5,30.9
2021-10-17T19:04:00Z,00000200,41000000,0001.18,0000.76,0000.43,-000.11,0000.16,-000.14,0000.66,0000.37,0000.31,17.3,24.2,,00.0,0670.4,30.9
2021-10-17T19:05:00Z,00000200,01000000,0001.78,0000.74,0000.28,-000.12,0000.21,-000.31,0000.14,0000.21,0000.08,17.3,24.1,,00.0,0670.5,30.9
2021-10-17T19:06:00Z,00000200,01000000,0000.94,0000.93,0000.32,0000.00,0000.50,0000.08,0000.47,-000.02,0000.30,17.3,24.1,,00.0,0670.5,30.9
2021-10-17T19:07:00Z,00000200,01000000,0000.98,0000.81,0000.08,-000.07,0000.47,-000.09,-000.02,0000.30,-000.01,17.3,24.1,,00.0,0670.5,30.9
2021-10-17T19:08:00Z,00000200,01000000,0001.16,0000.54,0000.53,0000.27,0000.60,0000.15,0000.23,-000.14,0000.19,17.4,24.1,,00.0,0670.5,30.9
2021-10-17T19:09:00Z,00000200,01000000,0001.38,0000.85,0000.27,0000.57,0000.47,0000.07,0000.53,0000.43,0000.06,17.4,24.1,,00.0,0670.5,30.9
2021-10-17T19:10:00Z,00000200,01000000,0000.62,0000.93,0000.10,-000.28,0000.11,-000.18,0000.16,0000.55,0000.30,17.4,24.1,,00.0,0670.5,30.9
2021-10-17T19:11:00Z,00000200,01000000,0001.38,0000.55,-000.05,0000.18,-000.03,-000.08,0000.47,0000.46,0000.08,17.4,24.1,,00.0,0670.5,30.9
2021-10-17T19:12:00Z,00000200,01000000,0001.50,0000.69,0000.49,0000.30,0000.12,-000.07,0000.06,0000.33,0000.78,17.4,24.1,,00.0,0670.5,30.9
2021-10-17T19:13:00Z,00000200,01000000,0001.40,0000.63,0000.34,-000.18,0000.14,0000.02,0000.77,-000.11,-000.17,17.4,24.1,,00.0,0670.5,30.9
2021-10-17T19:14:00Z,00000200,01000000,0000.55,0000.90,0000.48,-000.22,0000.33,-000.11,0000.26,0000.61,0000.73,17.4,24.1,,00.0,0670.5,30.9
2021-10-17T19:15:00Z,00000200,01000000,0001.47,0000.78,0000.38,0000.60,0000.27,-000.04,0000.26,0000.21,-000.10,17.4,24.1,,00.0,0670.5,30.9
2021-10-17T19:16:00Z,00000200,01000000,0001.53,0000.92,0000.64,0000.20,0000.14,-000.06,0000.61,0000.38,0000.32,17.4,24.1,,00.0,0670.6,30.9
2021-10-17T19:17:00Z,00000200,01000000,0000.41,0000.88,0000.44,-000.10,0000.42,-000.26,0000.43,0000.38,0000.23,17.4,24.1,,00.0,0670.6,30.9
2021-10-17T19:18:00Z,00000200,01000000,0001.15,0000.54,0000.34,0000.01,0000.32,0000.16,0000.47,0000.46,0000.18,17.4,24.1,,00.0,0670.6,30.9
2021-10-17T19:19:00Z,00000200,01000000,0000.99,0000.97,0000.36,0000.34,0000.12,0000.01,-000.09,-000.03,0000.18,17.4,24.1,,00.0,0670.6,30.9
2021-10-17T19:20:00Z,00000200,01000000,0001.32,0000.82,0000.31,0000.30,0000.15,0000.20,0000.13,0000.40,0000.06,17.4,24.1,,00.0,0670.6,30.9
2021-10-17T19:21:00Z,00000200,01000000,0001.68,0001.03,0000.45,-000.07,0000.52,0000.16,0000.64,0000.30,0000.43,17.4,24.1,,00.0,0670.6,30.9
2021-10-17T19:22:00Z,00000200,01000000,0001.59,0000.82,0000.35,0000.47,0000.42,0000.18,-000.15,-000.03,-000.18,17.4,24.1,,00.0,0670.6,30.9
2021-10-17T19:23:00Z,00000200,01000000,0001.82,0000.75,0000.46,0000.08,0000.26,0000.11,0000.17,0000.46,0000.24,17.4,24.1,,00.0,0670.6,31.0
2021-10-17T19:24:00Z,00000200,01000000,0001.81,0000.91,0000.48,0000.47,0000.18,0000.29,0000.67,-000.03,0000.11,17.4,24.1,,00.0,0670.6,30.9
2021-10-17T19:25:00Z,00000200,01000000,0000.81,0001.13,0000.73,-000.34,0000.38,0000.23,-000.33,0000.13,-000.08,17.4,24.1,,00.0,0670.6,30.9
2021-10-17T19:26:00Z,00000200,01000000,0001.62,0001.28,0000.95,-000.55,-000.07,-000.03,0000.76,0000.50,0000.42,17.4,24.1,,00.0,0670.6,30.9
2021-10-17T19:27:00Z,00000200,01000000,0002.44,0001.37,0000.90,0000.39,-000.13,0000.25,0000.54,0000.59,0000.52,17.4,24.1,,00.0,0670.6,30.9
2021-10-17T19:28:00Z,00000200,01000000,0003.25,0002.32,0001.35,0000.27,0000.26,0000.25,0000.93,0000.99,0000.61,17.4,24.1,,00.0,0670.6,30.9
2021-10-17T19:29:00Z,00000200,01000000,0004.22,0002.98,0001.70,0000.40,0000.42,0000.25,0001.26,0001.07,0000.92,17.4,24.1,,00.0,0670.6,30.9
2021-10-17T19:30:00Z,00000200,01000000,0005.17,0003.18,0001.94,0000.67,0000.74,0000.22,0001.27,0000.77,0000.71,17.4,24.1,,00.0,0670.6,30.9
2021-10-17T19:31:00Z,00000200,01000000,0004.37,0002.99,0001.74,0000.58,0000.49,0000.45,0000.61,0000.96,0000.46,17.4,24.1,,00.0,0670.6,30.9
2021-10-17T19:32:00Z,00000200,01000000,0004.54,0003.80,0001.76,0000.19,0000.52,0000.52,0001.33,0001.02,0000.74,17.4,24.1,,00.0,0670.6,30.9
2021-10-17T19:33:00Z,00000200,01000000,0005.09,0003.16,0001.68,0000.32,0000.30,0000.33,0000.91,0000.83,0000.72,17.5,24.1,,00.0,0670.7,30.9
2021-10-17T19:34:00Z,00000200,01000000,0004.05,0002.82,0001.75,0000.97,0000.49,0000.39,0000.83,0000.61,0000.98,17.5,24.1,,00.0,0670.6,30.9
2021-10-17T19:35:00Z,00000200,01000000,0003.51,0002.81,0001.59,0001.05,0000.43,0000.06,0001.02,0000.76,0000.09,17.4,24.1,,00.0,0670.6,30.9
2021-10-17T19:36:00Z,00000200,01000000,0003.09,0002.57,0001.61,0000.23,0000.62,0000.27,0000.71,0001.18,0000.75,17.4,24.1,,00.0,0670.6,30.9
2021-10-17T19:37:00Z,00000200,01000000,0004.87,0003.31,0001.46,0000.60,0000.55,0000.33,0001.21,0000.67,0000.81,17.4,24.1,,00.0,0670.7,30.9
2021-10-17T19:38:00Z,00000200,01000000,0003.99,0003.27,0001.82,0001.05,0000.47,0000.34,0000.72,0000.54,0000.40,17.4,24.1,,00.0,0670.6,31.0
2021-10-17T19:39:00Z,00000200,01000000,0003.58,0002.82,0001.21,0000.62,0000.53,0000.05,0000.87,0000.79,0000.64,17.4,24.1,,00.0,0670.6,30.9
2021-10-17T19:40:00Z,00000200,01000000,0003.64,0003.05,0001.89,0000.17,0000.36,0000.17,0001.08,0000.92,0000.43,17.5,24.1,,00.0,0670.6,30.9
2021-10-17T19:41:00Z,00000200,01000000,0004.65,0002.98,0001.87,0000.74,0000.60,0000.09,0000.89,0000.97,0000.76,17.5,24.1,,00.0,0670.6,30.9
2021-10-17T19:42:00Z,00000200,01000000,0004.19,0002.50,0001.62,0000.35,0000.52,0000.14,0000.45,0000.31,0000.37,17.4,24.1,,00.0,0670.6,30.9
2021-10-17T19:43:00Z,00000200,01000000,0003.74,0002.80,0001.60,-000.05,0000.44,0000.07,0000.82,0000.97,0000.26,17.4,24.1,,00.0,0670.6,30.9
2021-10-17T19:44:00Z,00000200,01000000,0003.64,0002.26,0001.19,0000.93,0000.79,0000.31,0000.64,0000.25,0000.46,17.4,24.1,,00.0,0670.6,30.9
2021-10-17T19:45:00Z,00000200,01000000,0004.45,0002.78,0001.59,0001.04,0000.62,0000.15,0000.71,0000.65,0000.23,17.4,24.0,,00.0,0670.6,30.9
2021-10-17T19:46:00Z,00000200,01000000,0003.82,0002.92,0001.76,0000.55,0000.16,0000.20,0000.69,0000.97,0000.59,17.4,24.0,,00.0,0670.6,30.9
2021-10-17T19:47:00Z,00000200,01000000,0003.70,0002.68,0001.77,0000.69,0000.38,0000.31,0000.73,0000.64,0000.86,17.4,24.0,,00.0,0670.7,30.9
2021-10-17T19:48:00Z,00000200,01000000,0004.29,0003.05,0001.77,0000.62,0000.70,0000.43,0001.32,0000.50,0000.35,17.4,24.0,,00.0,0670.7,30.9
2021-10-17T19:49:00Z,00000200,01000000,0003.97,0003.55,0002.10,0000.25,0000.57,0000.25,0001.07,0001.43,0000.92,17.4,24.0,,00.0,0670.7,30.9
2021-10-17T19:50:00Z,00000200,01000000,0004.71,0003.19,0001.83,0000.07,0000.45,0000.61,0001.13,0001.04,0000.23,17.4,24.0,,00.0,0670.7,30.9
2021-10-17T19:51:00Z,00000200,01000000,0004.50,0003.20,0001.88,0000.43,0000.59,0000.34,0000.63,0000.60,0001.13,17.4,24.0,,00.0,0670.7,30.9
2021-10-17T19:52:00Z,00000200,01000000,0004.00,0002.71,0001.71,0000.43,0000.43,0000.23,0000.91,0000.61,0000.41,17.4,24.0,,00.0,0670.7,30.9
2021-10-17T19:53:00Z,00000200,01000000,0004.84,0002.98,0001.83,0000.27,0000.43,-000.01,0001.05,0000.94,0000.37,17.4,24.0,,00.0,0670.7,30.9
2021-10-17T19:54:00Z,00000200,01000000,0005.05,0002.79,0001.77,0000.93,0000.89,0000.26,0000.78,0001.20,0000.83,17.4,24.0,,00.0,0670.7,30.9
2021-10-17T19:55:00Z,00000200,01000000,0004.33,0002.85,0001.68,0000.72,0000.56,0000.37,0001.02,0000.43,0000.66,17.4,24.0,,00.0,0670.7,30.9
2021-10-17T19:56:00Z,00000200,01000000,0004.56,0003.28,0001.82,0000.53,0000.23,0000.15,0000.71,0000.67,0000.49,17.4,24.0,,00.0,0670.7,30.9
2021-10-17T19:57:00Z,00000200,41000000,,,,,,,0000.31,0000.17,-000.15,17.4,24.1,,00.0,0670.6,30.9
2021-10-17T19:58:00Z,00000200,61000000,,,,,,,-000.29,-000.35,-000.44,17.0,24.2,,00.0,0669.7,30.9
2021-10-17T19:59:00Z,00000200,21000000,,,,,,,-000.19,-000.23,0000.31,16.9,24.3,,00.0,0669.7,30.9
